Weather History for Huntington, WV

Change the Weather History Date:

Saturday, December 28, 2013

  Actual Average Record
Temperature  
Mean Temperature 40 °F 34 °F  
Max Temperature 52 °F 43 °F 73 °F (1984)
Min Temperature 27 °F 26 °F 4 °F (1925)
Degree Days  
Heating Degree Days 25 30  
Month to date heating degree days 709 776  
Since 1 July heating degree days 1660 1663  
Cooling Degree Days 0 0  
Month to date cooling degree days 2 0  
Year to date cooling degree days 1217 1134  
Moisture  
Dew Point 22 °F    
Average Humidity 48    
Maximum Humidity 63    
Minimum Humidity 32    
Precipitation  
Precipitation T in 0.10 in 1.04 in (1916)
Month to date precipitation 4.86 3.01  
Year to date precipitation 44.22 42.29  
Snow  
Snow 0.00 in - - ()
Month to date snowfall 4.2  
Since 1 September snowfall 7.5  
Snow Depth 0.00 in    
Sea Level Pressure  
Sea Level Pressure 30.26 in    
Wind  
Wind Speed 4 mph (South)    
Max Wind Speed 10 mph    
Max Gust Speed 14 mph    
Visibility 10 miles    
Events Rain    
T = Trace of Precipitation, MM = Missing Value Source: NWS Daily Summary

Daily Weather History Graph

Daily Weather History Graph

Search for Another Location

Airport:

Trip Planner

Search our weather history database for the weather conditions in past years. The results will help you decide how hot, cold, wet, or windy it might be!

Date:

Astronomy

Dec. 28, 2013 Rise Set
Actual Time 7:46 AM EST 5:17 PM EST
Civil Twilight 7:16 AM EST 5:47 PM EST
Nautical Twilight 6:43 AM EST 6:20 PM EST
Astronomical Twilight 6:11 AM EST 6:52 PM EST
Moon 3:23 AM EST (12/28) 2:06 PM EST (12/28)
Length of Visible Light 10h 30m
Length of Day
9h 31m
Waning Crescent, 19% of the Moon is Illuminated
Dec 28
Waning Crescent
Jan 1
New
Jan 7
First Quarter
Jan 15
Full
Jan 24
Last Quarter

Hourly Weather History & Observations

Time (EST) Temp. Windchill Dew Point Humidity Pressure Visibility Wind Dir Wind Speed Gust Speed Precip Events Conditions
12:51 AM 32.0 °F 27.5 °F 19.9 °F 61% 30.35 in 10.0 mi South 4.6 mph - N/A   Clear
1:51 AM 32.0 °F 27.5 °F 21.0 °F 64% 30.33 in 10.0 mi South 4.6 mph - N/A   Clear
2:51 AM 32.0 °F 27.5 °F 19.9 °F 61% 30.32 in 10.0 mi South 4.6 mph - N/A   Clear
3:51 AM 30.0 °F - 19.9 °F 66% 30.32 in 10.0 mi Calm Calm - N/A   Clear
4:51 AM 32.0 °F 27.5 °F 19.9 °F 61% 30.31 in 10.0 mi SSW 4.6 mph - N/A   Clear
5:51 AM 32.0 °F - 19.9 °F 61% 30.33 in 10.0 mi Calm Calm - N/A   Clear
6:51 AM 32.0 °F 28.7 °F 19.9 °F 61% 30.34 in 10.0 mi South 3.5 mph - N/A   Clear
7:51 AM 32.0 °F 26.4 °F 21.0 °F 64% 30.35 in 10.0 mi South 5.8 mph - N/A   Clear
8:51 AM 36.0 °F - 21.9 °F 57% 30.34 in 10.0 mi Calm Calm - N/A   Clear
9:51 AM 39.9 °F 35.8 °F 21.9 °F 49% 30.35 in 10.0 mi SSW 5.8 mph - N/A   Clear
10:51 AM 44.1 °F 40.1 °F 21.9 °F 42% 30.33 in 10.0 mi SSW 6.9 mph - N/A   Clear
11:51 AM 46.9 °F - 23.0 °F 39% 30.31 in 10.0 mi SSW 4.6 mph - N/A   Clear
12:51 PM 48.9 °F - 23.0 °F 36% 30.26 in 10.0 mi South 5.8 mph - N/A   Clear
1:51 PM 52.0 °F - 23.0 °F 32% 30.26 in 10.0 mi South 5.8 mph - N/A   Clear
2:51 PM 52.0 °F - 23.0 °F 32% 30.22 in 10.0 mi South 5.8 mph - N/A   Clear
3:51 PM 51.1 °F - 23.0 °F 33% 30.23 in 10.0 mi South 8.1 mph - N/A   Clear
4:51 PM 48.9 °F - 21.9 °F 35% 30.20 in 10.0 mi South 6.9 mph - N/A   Clear
5:51 PM 48.0 °F - 21.0 °F 34% 30.20 in 10.0 mi SSW 4.6 mph - N/A   Clear
6:51 PM 46.9 °F - 21.0 °F 36% 30.18 in 10.0 mi Calm Calm - N/A   Clear
7:51 PM 46.0 °F - 21.0 °F 37% 30.17 in 10.0 mi Calm Calm - N/A   Clear
8:51 PM 44.1 °F - 23.0 °F 43% 30.15 in 10.0 mi Calm Calm - N/A   Clear
9:51 PM 44.1 °F 42.5 °F 24.1 °F 45% 30.12 in 10.0 mi SE 3.5 mph - N/A   Mostly Cloudy
10:51 PM 42.1 °F 40.2 °F 26.1 °F 53% 30.10 in 10.0 mi ESE 3.5 mph - 0.00 in Rain Light Rain
11:51 PM 44.1 °F 42.5 °F 28.9 °F 55% 30.06 in 10.0 mi SE 3.5 mph - 0.00 in Rain Light Rain